Ludington, MI

2:31 AM EST on November 17, 2019 (GMT -0500)
Mason County

Weather History for KLDM - September, 2019

Change the Weather History Date:

Sunday, September 1, 2019

  Actual Average Record
Temperature  
Mean Temperature 58 °F -  
Max Temperature 70 °F 76 °F 90 °F (1953)
Min Temperature 47 °F 56 °F 39 °F (1991)
Degree Days  
Heating Degree Days 6    
Growing Degree Days 8 (Base 50)    
Moisture  
Dew Point 54 °F    
Average Humidity 83    
Maximum Humidity 96    
Minimum Humidity 60    
Precipitation  
Precipitation 0.00 in - - ()
Sea Level Pressure  
Sea Level Pressure 30.16 in    
Wind  
Wind Speed 2 mph (SSW)    
Max Wind Speed 9 mph    
Max Gust Speed -    
Visibility 9 miles    
Events Fog    
Averages and records for this station are not official NWS values.
T = Trace of Precipitation, MM = Missing Value Source: NWS Daily Summary

Daily Weather History Graph

Daily Weather History Graph

Search for Another Location

Airport or City:

Astronomy

Sep. 01, 2019 Rise Set
Actual Time 7:08 AM EDT 8:21 PM EDT
Civil Twilight 6:38 AM EDT 8:51 PM EDT
Nautical Twilight 6:03 AM EDT 9:27 PM EDT
Astronomical Twilight 5:25 AM EDT 10:04 PM EDT
Moon 9:42 AM EDT (9/1) 10:03 PM EDT (9/1)
Length of Visible Light 14h 12m
Length of Day
13h 13m
Waxing Crescent, 8% of the Moon is Illuminated
Sep 1
Waxing Crescent
Sep 5
First Quarter
Sep 14
Full
Sep 21
Last Quarter
Sep 28
New

Hourly Weather History & Observations

Time (EDT) Temp. Dew Point Humidity Pressure Visibility Wind Dir Wind Speed Gust Speed Precip Events Conditions
12:15 AM 55.4 °F 53.6 °F 94% 30.26 in 10.0 mi Calm Calm - N/A   Clear
12:35 AM 53.8 °F 52.7 °F 96% 30.26 in 10.0 mi Calm Calm - N/A   Clear
12:58 AM 52.3 °F 51.1 °F 95% 30.26 in 7.0 mi Calm Calm - N/A   Clear
1:16 AM 53.1 °F 51.8 °F 95% 30.26 in 10.0 mi Calm Calm - N/A   Clear
1:35 AM 50.7 °F 49.5 °F 95% 30.26 in 10.0 mi Calm Calm - N/A   Clear
1:36 AM 50.4 °F 49.1 °F 95% 30.26 in 10.0 mi Calm Calm - N/A   Clear
1:55 AM 50.5 °F 49.3 °F 95% 30.26 in 2.0 mi Calm Calm - N/A   Clear
1:56 AM 50.4 °F 49.1 °F 95% 30.26 in 1.5 mi Calm Calm - N/A   Mist
2:19 AM 49.8 °F 48.7 °F 96% 30.25 in 1.8 mi Calm Calm - N/A   Mist
2:37 AM 48.6 °F 47.5 °F 96% 30.24 in 10.0 mi Calm Calm - N/A   Clear
2:55 AM 49.1 °F 48.0 °F 96% 30.24 in 10.0 mi Calm Calm - N/A   Clear
2:56 AM 49.1 °F 48.0 °F 96% 30.24 in 10.0 mi Calm Calm - N/A   Clear
3:15 AM 51.1 °F 50.0 °F 96% 30.24 in 10.0 mi East 3.5 mph - N/A   Clear
3:16 AM 51.1 °F 50.0 °F 96% 30.24 in 10.0 mi East 3.5 mph - N/A   Clear
3:35 AM 50.2 °F 48.9 °F 95% 30.23 in 10.0 mi Calm Calm - N/A   Clear
3:40 AM 50.9 °F 49.8 °F 96% 30.23 in 10.0 mi East 3.5 mph - N/A   Clear
3:58 AM 50.5 °F 49.5 °F 96% 30.23 in 10.0 mi ESE 3.5 mph - N/A   Scattered Clouds
4:16 AM 53.1 °F 50.7 °F 92% 30.23 in 10.0 mi Calm Calm - N/A   Overcast
4:35 AM 54.3 °F 50.9 °F 88% 30.22 in 10.0 mi ESE 3.5 mph - N/A   Overcast
4:55 AM 55.0 °F 51.1 °F 86% 30.22 in 10.0 mi SE 4.6 mph - N/A   Mostly Cloudy
4:56 AM 55.0 °F 50.9 °F 86% 30.22 in 10.0 mi SE 5.8 mph - N/A   Mostly Cloudy
5:19 AM 54.9 °F 50.7 °F 86% 30.22 in 10.0 mi Calm Calm - N/A   Scattered Clouds
5:37 AM 51.6 °F 50.4 °F 95% 30.21 in 10.0 mi Calm Calm - N/A   Clear
5:55 AM 50.2 °F 48.9 °F 95% 30.21 in 10.0 mi Calm Calm - N/A   Clear
6:15 AM 50.2 °F 49.1 °F 96% 30.21 in 10.0 mi Calm Calm - N/A   Clear
6:16 AM 50.2 °F 49.1 °F 96% 30.21 in 10.0 mi Calm Calm - N/A   Clear
6:35 AM 50.5 °F 49.3 °F 95% 30.21 in 10.0 mi Calm Calm - N/A   Clear
6:40 AM 50.0 °F 48.9 °F 96% 30.21 in 2.5 mi Calm Calm - N/A   Clear
6:58 AM 48.9 °F 47.8 °F 96% 30.21 in 2.0 mi Calm Calm - N/A   Clear
7:16 AM 48.2 °F 46.9 °F 95% 30.21 in 0.5 mi Calm Calm - N/A Fog Fog
7:35 AM 47.8 °F 46.8 °F 96% 30.21 in 10.0 mi Calm Calm - N/A   Clear
7:55 AM 49.6 °F 48.6 °F 96% 30.21 in 10.0 mi East 3.5 mph - N/A   Clear
7:56 AM 49.8 °F 48.7 °F 96% 30.21 in 10.0 mi East 3.5 mph - N/A   Clear
8:18 AM 52.7 °F 51.3 °F 95% 30.21 in 10.0 mi East 4.6 mph - N/A   Clear
8:55 AM 56.8 °F 52.0 °F 84% 30.21 in 10.0 mi ESE 3.5 mph - N/A   Scattered Clouds
9:15 AM 57.9 °F 53.1 °F 84% 30.21 in 10.0 mi ESE 4.6 mph - N/A   Mostly Cloudy
9:16 AM 58.1 °F 53.1 °F 83% 30.21 in 10.0 mi ESE 4.6 mph - N/A   Mostly Cloudy
9:35 AM 59.0 °F 53.8 °F 83% 30.20 in 10.0 mi ESE 4.6 mph - N/A   Overcast
9:40 AM 59.2 °F 53.2 °F 81% 30.20 in 10.0 mi ESE 5.8 mph - N/A   Overcast
9:58 AM 60.6 °F 53.4 °F 77% 30.20 in 10.0 mi ESE 4.6 mph - N/A   Mostly Cloudy
10:16 AM 62.8 °F 54.3 °F 74% 30.20 in 10.0 mi SE 5.8 mph - N/A   Scattered Clouds
10:35 AM 63.5 °F 52.7 °F 68% 30.20 in 10.0 mi SE 4.6 mph - N/A   Clear
10:36 AM 63.5 °F 52.7 °F 68% 30.20 in 10.0 mi SE 5.8 mph - N/A   Clear
10:55 AM 65.3 °F 53.1 °F 65% 30.19 in 10.0 mi ESE 4.6 mph - N/A   Clear
11:19 AM 65.8 °F 52.5 °F 62% 30.18 in 10.0 mi SSE 3.5 mph - N/A   Clear
11:37 AM 67.1 °F 53.4 °F 61% 30.18 in 10.0 mi SSW 4.6 mph - N/A   Scattered Clouds
11:55 AM 68.2 °F 53.6 °F 60% 30.17 in 10.0 mi Calm Calm - N/A   Scattered Clouds
12:15 PM 69.3 °F 55.0 °F 60% 30.18 in 10.0 mi WSW 9.2 mph - N/A   Scattered Clouds
12:35 PM 67.1 °F 55.4 °F 66% 30.17 in 10.0 mi WSW 5.8 mph - N/A   Scattered Clouds
12:58 PM 68.0 °F 55.6 °F 64% 30.17 in 10.0 mi West 3.5 mph - N/A   Clear
1:16 PM 68.5 °F 55.9 °F 64% 30.16 in 10.0 mi WNW 3.5 mph - N/A   Clear
1:35 PM 69.1 °F 55.4 °F 62% 30.15 in 10.0 mi West 5.8 mph - N/A   Clear
1:55 PM 69.4 °F 56.3 °F 63% 30.15 in 10.0 mi WNW 3.5 mph - N/A   Clear
2:19 PM 68.4 °F 56.1 °F 65% 30.14 in 10.0 mi WSW 8.1 mph - N/A   Mostly Cloudy
2:37 PM 68.5 °F 56.3 °F 65% 30.13 in 10.0 mi West 4.6 mph - N/A   Overcast
2:55 PM 70.0 °F 55.6 °F 60% 30.12 in 10.0 mi WSW 3.5 mph - N/A   Mostly Cloudy
2:56 PM 70.0 °F 55.8 °F 61% 30.12 in 10.0 mi WSW 5.8 mph - N/A   Mostly Cloudy
3:15 PM 70.9 °F 56.3 °F 60% 30.12 in 10.0 mi West 4.6 mph - N/A   Scattered Clouds
3:35 PM 70.3 °F 56.8 °F 62% 30.11 in 10.0 mi West 6.9 mph - N/A   Mostly Cloudy
3:40 PM 70.0 °F 57.4 °F 64% 30.11 in 10.0 mi West 6.9 mph - N/A   Mostly Cloudy
3:58 PM 69.4 °F 57.4 °F 65% 30.10 in 10.0 mi West 5.8 mph - N/A   Mostly Cloudy
4:15 PM 69.1 °F 57.6 °F 67% 30.10 in 10.0 mi WSW 5.8 mph - N/A   Scattered Clouds
4:35 PM 69.4 °F 58.1 °F 67% 30.10 in 10.0 mi WSW 5.8 mph - N/A   Scattered Clouds
4:55 PM 68.2 °F 58.1 °F 70% 30.09 in 10.0 mi WSW 6.9 mph - N/A   Mostly Cloudy
5:19 PM 67.6 °F 58.1 °F 71% 30.09 in 10.0 mi West 6.9 mph - N/A   Mostly Cloudy
5:37 PM 68.4 °F 58.5 °F 71% 30.09 in 7.0 mi WSW 4.6 mph - N/A   Overcast
5:55 PM 67.8 °F 58.5 °F 72% 30.08 in 10.0 mi West 4.6 mph - N/A   Scattered Clouds
5:56 PM 68.0 °F 58.5 °F 71% 30.08 in 10.0 mi WNW 5.8 mph - N/A   Scattered Clouds
6:15 PM 67.6 °F 58.3 °F 72% 30.08 in 10.0 mi West 5.8 mph - N/A   Clear
6:58 PM 67.1 °F 58.3 °F 73% 30.07 in 10.0 mi West 5.8 mph - N/A   Mostly Cloudy
7:15 PM 66.4 °F 58.3 °F 75% 30.07 in 10.0 mi SW 6.9 mph - N/A   Mostly Cloudy
7:35 PM 65.5 °F 58.3 °F 77% 30.07 in 10.0 mi SW 6.9 mph - N/A   Clear
7:55 PM 64.8 °F 57.7 °F 78% 30.07 in 10.0 mi SW 5.8 mph - N/A   Clear
8:19 PM 63.7 °F 57.4 °F 80% 30.06 in 10.0 mi SW 4.6 mph - N/A   Clear
8:37 PM 62.8 °F 57.2 °F 82% 30.05 in 10.0 mi SW 4.6 mph - N/A   Clear
8:55 PM 62.4 °F 57.6 °F 84% 30.05 in 10.0 mi SSW 3.5 mph - N/A   Clear
8:56 PM 62.6 °F 57.6 °F 84% 30.05 in 10.0 mi SSW 4.6 mph - N/A   Clear
9:15 PM 61.9 °F 57.6 °F 86% 30.06 in 10.0 mi Calm Calm - N/A   Clear
9:16 PM 61.9 °F 57.4 °F 85% 30.06 in 10.0 mi Calm Calm - N/A   Clear
9:35 PM 59.9 °F 57.6 °F 92% 30.06 in 10.0 mi Calm Calm - N/A   Clear
9:58 PM 57.7 °F 56.3 °F 95% 30.06 in 10.0 mi Calm Calm - N/A   Clear
10:15 PM 58.1 °F 56.8 °F 96% 30.06 in 10.0 mi Calm Calm - N/A   Clear
10:35 PM 57.4 °F 56.1 °F 96% 30.06 in 10.0 mi Calm Calm - N/A   Clear
10:36 PM 57.6 °F 56.3 °F 96% 30.06 in 10.0 mi Calm Calm - N/A   Clear
10:55 PM 58.3 °F 56.8 °F 95% 30.06 in 10.0 mi Calm Calm - N/A   Clear
11:19 PM 59.5 °F 57.6 °F 93% 30.06 in 10.0 mi Calm Calm - N/A   Scattered Clouds
11:37 PM 59.2 °F 57.7 °F 95% 30.06 in 10.0 mi Calm Calm - N/A   Scattered Clouds
11:55 PM 59.4 °F 58.1 °F 96% 30.06 in 10.0 mi Calm Calm - N/A   Mostly Cloudy
11:56 PM 59.4 °F 58.1 °F 96% 30.06 in 10.0 mi Calm Calm - N/A   Mostly Cloudy